Tracking 27188 objects as of 1-Apr-2023
HD Live streaming from Space Station
objects crossing your sky now

STARLINK-1147

Track STARLINK-1147 now!
10-day predictions
STARLINK-1147 is classified as:


NORAD ID: 45095
Int'l Code: 2020-006BD
Perigee: 553.8 km
Apogee: 555.4 km
Inclination: 53.1 °
Period: 95.6 minutes
Semi major axis: 6925 km
RCS: Unknown
Launch date: January 29, 2020
Source: United States (US)
Launch site: AIR FORCE EASTERN TEST RANGE (AFETR)
Your satellite tracking list
Your tracking list is empty




NASA's NSSDC Master Catalog

Two Line Element Set (TLE):
1 45095U 20006BD  23091.24607068  .00032521  00000-0  21969-2 0  9991
2 45095  53.0552  25.4840 0001221  86.7404 273.3724 15.06319100175235
Source of the keplerian elements: AFSPC